OAO 2

Last updated on Sun Oct 26 2025 00:02:18 GMT+0000 (Coordinated Universal Time)

1 03597U 68110A 25298.35571345 .00000429 00000+0 12090-3 0 9998 2 03597 34.9939 300.7651 0005761 197.5005 162.5488 14.47199882999511
UTC large
Height (km)
Speed (km/s)
/
Latitude / Longitude
Inclination (degrees)
Orbital Period (minutes)
Azimuth
Elevation
Range (km)
Doppler Factor

Next 0 passes for location: London (51.5072 / 0.1276)

Sorry there are no passes over London.